DW5338 Weather Reports


Display with metric or nautical units.
time (UTC)temp
F
wind
direction
speed
MPH
gust
MPH
rain 1hr
in
rain 24hr
in
rain mn
in
humidity
%
barometer
mb
20260901205020 69 225 9.0 20.0 0.00 0.13 0.00 34 1026.0
20260901204020 69 270 9.0 16.0 0.00 0.13 0.00 35 1026.1
20260901203015 68 270 12.0 20.0 0.00 0.13 0.00 34 1025.8
20260901202020 70 270 10.0 18.0 0.00 0.13 0.00 36 1026.0
20260901201041 69 270 6.0 14.0 0.00 0.13 0.00 38 1026.0
20260901200020 68 270 12.0 20.0 0.00 0.13 0.00 39 1026.2
20260901195020 69 270 11.0 25.0 0.00 0.13 0.00 40 1026.2
20260901194041 70 225 5.0 11.0 0.00 0.13 0.00 38 1026.5
20260901193040 71 225 5.0 14.0 0.00 0.13 0.00 38 1026.4
20260901192020 70 203 6.0 12.0 0.00 0.13 0.00 38 1026.1
20260901191041 70 270 8.0 18.0 0.00 0.13 0.00 40 1026.2
20260901190020 69 203 8.0 15.0 0.00 0.13 0.00 40 1026.1
20260901185021 69 270 8.0 15.0 0.00 0.13 0.00 41 1026.3
20260901184020 68 203 7.0 19.0 0.00 0.13 0.00 41 1026.3
20260901183021 67 225 9.0 17.0 0.00 0.13 0.00 43 1026.1
20260901182020 68 203 6.0 15.0 0.00 0.13 0.00 42 1026.5
20260901181015 68 203 7.0 16.0 0.00 0.13 0.00 43 1026.3
20260901180020 68 180 5.0 12.0 0.00 0.13 0.00 44 1026.5
20260901175040 67 225 8.0 18.0 0.00 0.13 0.00 43 1026.4
20260901174041 67 203 7.0 16.0 0.00 0.13 0.00 43 1026.3
20260901173035 67 203 5.0 16.0 0.00 0.13 0.00 46 1026.4
20260901172020 65 203 7.0 16.0 0.00 0.13 0.00 46 1026.3
20260901171020 65 203 7.0 15.0 0.00 0.13 0.00 46 1026.4
20260901170020 65 225 3.0 11.0 0.00 0.13 0.00 46 1026.3
20260901165037 64 203 4.0 19.0 0.00 0.13 0.00 48 1026.4
20260901164017 64 203 6.0 13.0 0.00 0.13 0.00 51 1026.4
20260901163022 63 203 3.0 9.0 0.00 0.13 0.00 53 1026.1
20260901162015 63 180 4.0 12.0 0.00 0.13 0.00 57 1026.2
20260901161042 63 203 4.0 10.0 0.00 0.13 0.00 56 1026.0
20260901160017 62 203 7.0 16.0 0.00 0.13 0.00 56 1025.8
20260901155017 61 225 5.0 15.0 0.00 0.13 0.00 59 1025.8
20260901154022 60 225 5.0 10.0 0.00 0.13 0.00 64 1025.7
20260901153017 59 225 6.0 12.0 0.00 0.13 0.00 63 1025.6
20260901152017 58 203 5.0 11.0 0.00 0.13 0.00 66 1025.8
20260901151056 57 225 4.0 12.0 0.00 0.13 0.00 69 1025.6
20260901150017 57 225 7.0 14.0 0.00 0.13 0.00 68 1025.6
20260901145017 56 225 6.0 14.0 0.00 0.13 0.00 69 1025.4
20260901144022 56 225 5.0 11.0 0.00 0.13 0.00 71 1025.5
20260901143017 56 225 6.0 12.0 0.00 0.13 0.00 70 1025.4
20260901142022 56 225 7.0 14.0 0.00 0.13 0.00 71 1025.4
20260901141016 55 225 5.0 12.0 0.00 0.13 0.00 72 1025.5
20260901140022 55 225 5.0 11.0 0.00 0.13 0.00 73 1025.4
20260901135022 55 225 5.0 11.0 0.00 0.13 0.00 72 1025.4
20260901134017 55 248 5.0 11.0 0.00 0.13 0.00 73 1025.3
20260901133016 53 270 5.0 10.0 0.00 0.13 0.00 77 1024.9
20260901132022 53 225 3.0 8.0 0.00 0.13 0.00 78 1024.7
20260901131020 52 225 4.0 7.0 0.00 0.13 0.00 82 1024.5
20260901130017 52 203 4.0 7.0 0.00 0.13 0.00 84 1024.1
20260901125016 50 203 4.0 8.0 0.00 0.13 0.00 88 1024.0
20260901124016 50 225 3.0 6.0 0.00 0.13 0.00 89 1023.9
20260901123016 50 225 2.0 5.0 0.00 0.13 0.00 90 1023.8
20260901122017 50 203 5.0 8.0 0.00 0.13 0.00 90 1023.7
20260901121022 50 203 5.0 7.0 0.00 0.13 0.00 90 1024.3
20260901120016 50 203 5.0 7.0 0.00 0.13 0.00 90 1024.2
20260901115022 51 203 4.0 6.0 0.00 0.13 0.00 86 1024.3
20260901114022 51 225 5.0 8.0 0.00 0.13 0.00 86 1024.5
20260901113017 51 225 5.0 9.0 0.00 0.13 0.00 86 1024.4
20260901112022 50 225 6.0 10.0 0.00 0.13 0.00 90 1024.2
20260901111022 50 225 4.0 7.0 0.00 0.13 0.00 90 1024.7
20260901110042 51 270 5.0 8.0 0.00 0.13 0.00 88 1024.7
20260901105022 51 225 3.0 5.0 0.00 0.13 0.00 88 1024.8
20260901104022 51 248 3.0 5.0 0.00 0.13 0.00 88 1024.9
20260901103022 52 225 4.0 7.0 0.00 0.13 0.00 88 1025.0
20260901102022 52 225 2.0 6.0 0.00 0.13 0.00 88 1025.0
20260901101022 51 225 4.0 6.0 0.00 0.13 0.00 90 1024.9
20260901100022 52 225 3.0 4.0 0.00 0.13 0.00 89 1025.2
20260901095022 51 248 2.0 4.0 0.00 0.13 0.00 89 1025.3
20260901094022 52 225 2.0 4.0 0.00 0.13 0.00 89 1025.4
20260901093022 52 248 2.0 4.0 0.00 0.13 0.00 90 1025.5
20260901092016 51 225 3.0 4.0 0.00 0.13 0.00 91 1025.5
20260901091022 51 203 3.0 4.0 0.00 0.13 0.00 90 1025.5
20260901090016 51 203 4.0 6.0 0.00 0.13 0.00 92 1025.6
20260901085022 51 203 4.0 5.0 0.00 0.13 0.00 92 1025.7
20260901084022 52 225 3.0 5.0 0.00 0.13 0.00 91 1025.7
20260901083016 51 225 3.0 5.0 0.00 0.13 0.00 91 1025.7
20260901082022 51 225 3.0 4.0 0.00 0.13 0.00 91 1026.0
20260901081022 52 225 2.0 4.0 0.00 0.13 0.00 90 1026.0
20260901080016 51 270 2.0 6.0 0.00 0.13 0.00 90 1026.2
20260901075022 52 225 2.0 4.0 0.00 0.13 0.00 89 1026.4
20260901074022 52 225 4.0 5.0 0.00 0.13 0.00 90 1026.7
20260901073016 52 225 3.0 4.0 0.00 0.13 0.00 89 1026.9
20260901072022 52 225 1.0 3.0 0.00 0.13 0.00 90 1026.8
20260901071021 52 203 2.0 3.0 0.00 0.13 0.00 90 1026.7
20260901070036 52 0.0 2.0 0.00 0.13 0.00 89 1026.7
20260901065016 52 225 2.0 4.0 0.00 0.13 0.00 88 1026.6
20260901064022 52 203 4.0 6.0 0.00 0.13 0.00 90 1026.5
20260901063016 52 203 3.0 6.0 0.00 0.13 0.00 89 1026.6
20260901062022 52 225 4.0 6.0 0.00 0.13 0.00 90 1026.6
20260901061022 51 203 4.0 7.0 0.00 0.13 0.00 91 1026.3
20260901060016 51 225 4.0 8.0 0.00 0.13 0.13 92 1026.5
20260901055016 51 203 4.0 6.0 0.00 0.13 0.13 92 1026.4
20260901054016 52 225 3.0 5.0 0.00 0.13 0.13 91 1026.4
20260901053021 52 225 4.0 6.0 0.00 0.13 0.13 91 1026.4
20260901052016 52 225 3.0 5.0 0.00 0.13 0.13 91 1026.5
20260901051021 52 225 5.0 7.0 0.00 0.13 0.13 91 1026.9
20260901050021 52 225 4.0 6.0 0.00 0.13 0.13 92 1026.8
20260901045016 52 203 4.0 6.0 0.00 0.13 0.13 92 1026.9
20260901044021 52 225 4.0 6.0 0.00 0.13 0.13 92 1026.7
20260901043021 52 225 4.0 8.0 0.00 0.13 0.13 91 1026.6
20260901042021 52 225 4.0 6.0 0.00 0.13 0.13 92 1026.6
20260901041015 52 225 3.0 5.0 0.00 0.13 0.13 93 1026.5
20260901040036 52 203 2.0 4.0 0.01 0.13 0.13 93 1026.4
20260901035015 52 203 1.0 3.0 0.03 0.13 0.13 91 1026.1
20260901034016 52 0 5.0 8.0 0.05 0.13 0.13 90 1025.7
20260901033021 52 293 4.0 7.0 0.07 0.13 0.13 91 1026.7
20260901032021 52 225 2.0 3.0 0.10 0.13 0.13 92 1027.2
20260901031015 52 270 6.0 8.0 0.10 0.13 0.13 91 1027.1
20260901030021 52 248 2.0 4.0 0.09 0.12 0.12 92 1027.1
20260901025021 53 225 3.0 8.0 0.07 0.10 0.10 91 1027.1
20260901024016 53 225 6.0 11.0 0.05 0.08 0.08 89 1026.9
20260901023021 54 203 7.0 13.0 0.03 0.06 0.06 86 1026.7
20260901022021 54 180 8.0 19.0 0.00 0.03 0.03 86 1026.3
20260901021021 54 203 6.0 9.0 0.00 0.03 0.03 89 1025.6
20260901020021 55 225 5.0 7.0 0.00 0.03 0.03 89 1025.4
20260901015021 55 225 5.0 8.0 0.00 0.03 0.03 88 1025.6
20260901014016 55 225 5.0 7.0 0.00 0.03 0.03 86 1025.4
20260901013016 55 225 4.0 6.0 0.00 0.03 0.03 84 1025.4
20260901012021 56 270 4.0 8.0 0.02 0.03 0.03 79 1025.4
20260901011015 55 270 4.0 8.0 0.02 0.03 0.03 80 1025.4
20260901010021 55 270 7.0 9.0 0.03 0.03 0.03 80 1025.4
20260901005021 54 270 5.0 10.0 0.03 0.03 0.03 83 1025.4
20260901004015 54 270 9.0 12.0 0.03 0.03 0.03 85 1025.7
20260901003041 54 293 10.0 12.0 0.03 0.03 0.03 85 1025.6
20260901002021 55 225 5.0 9.0 0.01 0.01 0.01 84 1026.3
20260901001021 56 225 5.0 10.0 0.01 0.01 0.01 80 1026.6
20260901000021 59 225 7.0 13.0 0.00 0.00 0.00 69 1026.8
20260831235021 61 248 5.0 14.0 0.00 0.00 0.00 60 1026.5
20260831234041 62 293 6.0 8.0 0.00 0.00 0.00 54 1026.4
20260831233021 61 293 6.0 9.0 0.00 0.00 0.00 55 1026.3
20260831232041 61 293 8.0 11.0 0.00 0.00 0.00 57 1026.3
20260831231021 62 293 9.0 12.0 0.00 0.00 0.00 54 1026.1
20260831230021 65 293 8.0 13.0 0.00 0.00 0.00 47 1026.4
20260831225055 66 0 4.0 8.0 0.00 0.00 0.00 45 1026.6
20260831224021 66 338 3.0 5.0 0.00 0.00 0.00 44 1026.8
20260831223021 66 293 2.0 5.0 0.00 0.00 0.00 45 1026.8
20260831222021 66 293 3.0 5.0 0.00 0.00 0.00 45 1026.8
20260831221021 66 338 3.0 5.0 0.00 0.00 0.00 44 1026.7
20260831220041 66 0 2.0 4.0 0.00 0.00 0.00 45 1026.7
20260831215021 66 315 2.0 5.0 0.00 0.00 0.00 45 1026.6
20260831214055 66 45 4.0 9.0 0.00 0.00 0.00 45 1026.8
20260831213021 66 45 4.0 7.0 0.00 0.00 0.00 44 1026.8
20260831212015 67 45 5.0 11.0 0.00 0.00 0.00 44 1027.0
20260831211021 67 45 4.0 9.0 0.00 0.00 0.00 45 1027.0
20260831210021 68 45 6.0 13.0 0.00 0.00 0.00 44 1027.1